Weather in Malmyzh

Russia / Khabarovsk Krai     49°51′09″N   136°45′52″E
В апреле 2022 года жителям России запретили посещать сайт meteo.paraplan.net по решению Генеральной прокуратуры. Аудитория сайта уменьшилась в 10 раз. Владельцы сайта не видят смысла в поддержке погодного сервера в таких условиях. Сайт будет закрыт в октябре.
temp.,
°C
wind,
m/s
gust,
m/s
humid.,
%
clouds,
%
prec.,
mm/h
press.,
hPa
HPBL,
m
30 september, fri
fri3001:00+10s3675100 0.1 1008177
04:00+10s3673100 0.1 1006192
07:00+9ssw357885 0.1 1006231
10:00+11wsw5776100 0.1 1006497
13:00+13wsw576749 0.0 1007678
16:00+14w356413 0.0 1007677
19:00+12e117698 0.0 100914
22:00+10ne2483100 0.1 100978
1 october, sat
sat101:00+9ene4695100 9.6 1008386
04:00+9nne5889100 10.2 1009492
07:00+7nne91389100 1.1 1012669
10:00+7nne7108595 1.1 1015731
13:00+10nne566917 0.0 1017898
16:00+11nne226387 0.0 1019709
19:00+10se2370100 0.0 102159
22:00+8s22766 0.0 102349
2 october, sun
sun201:00+7sw12783 0.0 102396
04:00+6sw238227 0.0 1023112
07:00+6s3584100 0.0 1023162
10:00+8ssw5982100 0.0 1023406
13:00+11ssw686996 0.0 1020617
16:00+12sw6970100 0.0 1018524
19:00+9ssw4990100 1.7 1018528
22:00+9sw3789100 1.9 1016234
3 october, mon
mon301:00+9s4789100 0.1 1014226
04:00+10sw2589100 0.2 1012190
07:00+9ssw3896100 1.7 1012260
10:00+10wsw3696100 2.6 1012211
13:00+11nnw1293100 0.3 1011130
16:00+10ne4697100 3.1 1010236
19:00+8nne71292100 4.8 1009566
22:00+7n91592100 8.6 1007678
4 october, tue
tue401:00+6n81392100 7.1 1005684
04:00+6n71092100 11.8 1004943
07:00+5nne4790100 1.1 1004770
10:00+5nne5783100 1.3 1004741
13:00+4ne5686100 0.4 1003776
16:00+5nne688082 0.8 1002956
19:00+3n7118899 0.2 1004881
22:00+3n81174100 0.2 1005983